SCP
0 -0 -0 -0 -0 -0 -0 0 0 0 0 0 0 0 0 0 0 1 1 0 0 0 0 0 0 0 1 1 1 1 1 1 1 1 1 1 1 0 0 0 0 0 0 0
0 -0 -0 -0 -0 -0 -0 0 0 0 0 0 0 0 0 0 0 0 0 0 0 0 0 0 0 0 0 0 0 1 1 1 1 1 1 1 1 0 0 0 0 0 0 0
0 0 0 0 -0 -0 -0 0 0 0 0 0 0 0 0 0 0 0 0 0 0 0 0 0 0 0 0 0 0 0 0 1 1 1 1 1 0 0 0 0 0 0 0 0
0 0 0 0 -0 0 0 0 0 0 0 0 0 0 0 0 0 0 0 0 0 0 0 0 0 0 0 0 0 0 0 0 1 1 0 0 0 0 0 0 0 0 0 0
0 0 0 0 0 0 0 0 0 0 0 0 0 0 0 0 0 0 0 0 0 0 0 0 0 0 0 0 0 0 0 0 0 0 0 0 0 0 0 0 0 0 0 0
0 0 0 0 0 0 0 0 0 0 0 0 0 0 0 0 0 0 0 0 0 0 0 0 0 0 0 0 0 0 0 0 0 0 0 0 0 0 0 0 0 0 0 0
0 0 0 0 0 0 0 0 0 0 0 0 0 0 0 0 0 0 0 0 0 0 0 0 0 0 0 0 0 0 0 0 0 0 0 0 0 0 0 0 0 0 0 0
0 0 0 0 0 0 0 0 0 0 0 0 0 0 0 0 0 0 0 0 0 0 0 0 0 0 0 0 0 0 0 0 0 0 0 0 0 0 0 0 0 0 0 0
0 0 0 0 0 0 0 0 0 0 0 0 0 0 0 0 0 0 0 0 0 0 0 0 0 0 0 0 0 0 0 0 0 0 0 0 0 0 0 0 0 0 0 0
0 0 0 0 0 0 0 0 0 0 0 0 0 0 0 0 0 0 0 0 0 0 0 0 0 0 0 0 0 0 0 0 0 0 0 0 0 0 0 0 0 0 0 0
0 0 0 0 0 0 0 0 0 0 0 0 0 0 0 0 0 0 0 0 0 0 0 0 0 0 0 0 0 0 0 0 0 0 0 0 0 0 0 0 0 0 0 0
0 0 0 0 0 0 0 0 0 0 0 0 0 0 0 0 0 0 0 0 0 0 0 0 0 0 0 0 0 0 0 0 0 0 0 0 0 0 0 0 0 0 0 0
0 0 0 0 0 0 0 0 0 0 0 0 0 0 0 0 0 0 0 1 1 1 0 0 0 0 0 0 0 0 0 0 0 0 0 0 0 0 0 0 0 0 0 0
0 0 0 0 0 0 0 0 0 0 0 0 0 0 0 0 0 0 0 1 1 1 1 0 0 0 0 0 0 0 0 0 0 0 0 0 0 0 0 0 0 0 0 0
0 0 0 0 0 0 0 0 0 0 0 0 0 0 0 0 0 0 1 1 1 1 1 1 1 0 0 0 0 0 0 0 0 0 0 0 0 0 0 0 0 0 0 0
0 0 0 0 0 0 0 0 0 0 0 0 0 0 0 0 0 1 1 1 1 1 1 1 1 1 1 1 0 0 0 0 0 0 0 0 0 0 0 0 0 0 0 0
0 0 0 0 0 0 0 0 0 0 0 0 0 0 0 0 0 1 1 1 1 1 1 1 1 1 1 1 1 1 1 1 1 0 0 0 0 0 0 0 0 0 0 0
0 0 0 0 0 0 0 0 0 0 0 0 0 0 0 0 1 1 1 1 1 1 1 1 1 1 1 1 1 1 1 1 1 0 0 0 0 0 0 0 0 0 0 0
0 0 0 0 0 0 0 0 0 0 0 0 0 0 0 1 1 1 1 1 1 1 1 1 1 1 1 1 1 1 1 1 0 0 0 0 0 0 0 0 0 0 0 0
0 0 0 0 0 0 0 0 0 0 0 0 0 0 0 1 1 1 1 1 1 1 1 1 1 1 1 1 1 0 0 0 0 0 0 0 0 0 0 0 0 0 0 0
0 0 0 0 0 0 0 0 0 0 0 0 0 0 0 1 1 1 0 0 1 1 1 1 0 0 0 0 0 0 0 0 0 0 0 0 0 0 0 0 0 0 0 0
0 0 0 0 0 0 0 0 0 0 0 0 0 0 0 0 0 0 0 0 0 0 0 0 0 0 0 0 0 0 0 0 0 0 0 0 0 0 0 0 0 0 0 0
0 0 0 0 0 0 0 0 0 0 0 0 0 0 0 0 0 0 0 0 0 0 0 0 0 0 0 0 0 0 0 0 0 0 0 0 0 0 0 0 0 0 0 0
0 0 0 0 0 0 0 0 0 0 0 0 0 0 0 0 0 0 0 0 0 0 0 0 0 0 0 0 0 0 0 0 0 0 0 0 0 0 0 0 0 0 0 0
0 0 0 0 0 0 0 0 0 0 0 0 0 0 0 0 0 0 0 0 0 0 0 0 0 0 0 0 0 0 0 0 0 0 0 0 0 0 0 0 0 0 0 0
0 0 0 0 0 0 0 0 0 0 0 0 0 0 0 0 0 0 0 0 0 0 0 0 0 0 0 0 0 0 0 0 0 0 0 0 0 0 0 0 0 0 0 0
Wind_Speed
11 12 13 11 7 7 8 9 9 7 6 8 8 8 3 2 4 4 5 6 7 8 8 8 8 9 10 11 12 12 11 11 10 8 8 7 7 6 5 5 5 5 4 5
11 16 14 8 7 8 10 11 9 6 4 7 9 9 1 3 4 4 6 7 8 8 9 9 8 9 10 12 12 12 12 12 11 8 7 6 6 5 5 4 5 5 5 5
18 8 6 10 12 12 12 11 9 10 9 7 8 6 4 5 5 5 5 6 6 7 8 8 8 9 10 11 12 12 12 12 11 10 7 7 6 5 5 5 5 5 5 4
14 13 9 11 13 12 12 7 8 9 11 7 5 9 1 4 5 7 7 7 7 7 7 7 7 9 10 11 11 12 12 12 11 11 10 11 8 7 6 6 5 6 5 5
11 10 12 14 14 12 11 5 7 9 10 10 5 8 2 4 3 5 7 8 7 7 7 7 6 8 8 10 11 11 11 12 12 11 11 11 8 6 6 6 7 6 6 5
12 7 8 9 8 8 6 7 8 9 10 10 4 7 5 2 1 2 7 8 8 7 7 7 7 8 8 9 10 10 11 11 12 12 12 11 10 8 8 8 8 7 6 6
15 15 13 11 11 9 10 10 9 10 9 5 1 6 4 3 1 2 6 9 9 8 8 9 9 9 10 11 11 11 12 12 12 13 12 11 10 10 10 9 8 7 6 6
12 11 13 13 15 12 12 13 11 9 8 5 3 5 3 3 3 4 5 8 10 10 10 10 10 10 10 11 12 12 13 13 13 12 11 10 10 9 8 9 7 7 5 5
8 6 6 7 10 12 11 12 11 11 11 10 6 4 2 4 6 7 8 9 10 10 10 11 11 11 11 11 11 11 12 13 13 12 11 10 10 9 7 8 8 7 5 5
8 7 7 7 8 9 10 8 6 10 10 11 8 6 2 3 6 9 10 10 11 11 11 11 11 11 11 11 11 11 12 12 12 12 11 10 11 9 8 8 7 6 5 5
10 9 8 8 10 10 9 10 10 9 9 10 10 4 3 0 3 8 11 11 12 12 13 12 11 11 11 12 12 12 12 12 11 11 10 10 10 10 9 7 7 6 6 6
9 8 9 8 3 4 9 11 11 10 10 10 11 7 3 1 3 7 10 11 12 12 12 12 12 12 12 12 12 12 12 12 12 11 10 10 9 9 8 8 7 6 6 6
5 7 9 10 9 8 9 9 11 11 10 11 13 7 5 5 4 6 9 12 12 13 13 13 13 12 12 12 12 13 12 12 12 11 11 10 10 9 9 7 6 5 5 4
4 7 10 11 5 2 7 9 9 12 12 13 14 12 6 5 5 7 9 12 13 14 13 13 12 11 11 11 11 11 12 12 11 11 11 10 9 8 7 6 6 5 4 4
5 8 9 10 8 8 11 12 12 14 15 16 15 14 10 5 3 6 9 12 13 14 14 13 13 11 11 11 11 10 10 10 10 10 9 9 7 7 7 6 6 5 5 4
3 7 8 11 11 12 14 15 16 17 17 18 18 18 11 4 3 5 9 12 14 14 14 14 13 12 11 11 10 10 9 9 9 9 9 8 7 7 7 6 6 6 5 5
5 6 9 12 10 12 16 15 16 17 17 17 18 16 10 7 5 5 8 12 13 13 13 13 12 11 10 10 9 9 9 9 9 9 9 9 9 8 8 8 8 8 7 7
5 7 7 10 9 15 8 3 7 12 14 15 15 13 10 6 2 2 4 8 10 11 11 11 10 10 9 9 10 10 10 9 9 10 10 9 9 10 9 9 9 8 7 8
4 6 7 8 12 12 10 4 6 10 13 9 10 10 6 2 3 2 2 5 7 8 9 9 9 10 10 11 11 12 11 11 11 10 10 10 10 10 10 10 9 9 8 9
5 6 8 8 10 10 3 3 4 8 10 3 6 7 4 5 7 4 6 7 8 9 9 10 11 12 11 11 12 14 13 13 12 11 11 11 10 11 10 10 10 9 8 9
7 7 10 11 11 9 2 3 5 9 3 7 7 7 5 6 3 8 10 10 10 11 12 12 12 12 12 12 13 15 14 13 12 12 12 12 11 11 11 10 9 9 8 8
7 6 7 7 9 5 4 4 6 7 10 11 10 7 3 3 8 11 11 12 13 13 13 14 13 13 12 12 14 15 14 13 13 13 13 12 11 10 10 10 9 8 8 8
6 5 4 5 5 5 4 7 9 11 12 11 8 5 3 8 10 12 13 13 14 14 14 14 15 15 13 12 13 15 13 13 13 13 13 12 12 10 9 9 8 7 5 4
4 4 7 7 7 7 8 8 8 8 8 7 4 2 7 11 13 14 13 14 14 15 14 15 16 16 14 13 13 13 12 12 13 13 12 11 10 10 8 5 5 5 4 3
5 4 7 9 8 7 5 6 6 5 4 1 3 7 11 14 15 15 14 14 13 13 13 14 15 15 14 12 12 11 11 11 12 12 10 10 10 9 8 9 9 8 10 9
4 5 6 6 5 5 6 7 5 2 3 6 11 12 13 15 17 16 14 13 12 13 13 14 15 15 13 12 12 11 10 10 10 9 8 7 7 7 7 8 9 15 12 13
Wind_Direction
203 228 231 233 247 285 290 289 295 319 344 312 313 318 328 181 198 185 184 182 184 185 181 180 178 178 179 182 180 176 176 170 168 166 168 166 162 164 160 163 158 169 176 169
208 230 238 247 250 255 261 271 283 302 340 309 310 304 307 187 208 204 196 192 188 183 179 179 177 178 181 181 180 178 177 175 174 169 166 164 156 163 154 154 150 170 175 179
225 234 227 230 230 242 251 264 290 310 311 253 291 278 168 174 193 195 197 191 187 185 185 181 183 187 185 184 185 180 176 174 175 165 158 153 152 160 159 163 164 177 180 183
236 239 225 232 235 242 250 259 284 293 291 308 323 312 145 169 199 197 192 187 188 182 182 181 185 190 191 187 182 178 174 172 171 168 173 173 177 175 171 172 161 169 181 183
218 223 226 233 239 241 257 284 279 282 284 285 264 291 355 163 226 191 183 183 185 177 176 175 179 181 180 177 174 170 169 169 170 177 178 180 182 174 165 167 160 178 175 188
244 221 239 243 239 241 236 240 246 252 261 267 302 299 316 52 332 163 166 174 178 172 167 163 166 164 164 168 168 167 165 166 171 178 181 185 180 174 167 174 171 186 177 186
231 232 230 237 237 215 221 238 244 240 237 261 93 279 314 31 103 166 163 167 172 171 166 162 165 165 164 166 167 169 169 169 176 181 185 185 183 180 181 184 182 191 181 182
218 224 215 218 229 231 222 238 252 270 278 287 214 267 346 96 137 150 158 161 168 171 168 166 166 165 167 168 169 171 174 174 178 182 184 185 186 190 188 192 188 189 192 182
223 214 171 205 221 231 223 234 257 268 271 276 275 270 236 162 175 171 164 164 172 172 168 168 166 167 168 170 170 174 177 177 179 182 182 185 190 197 191 183 195 190 192 184
243 241 196 187 207 219 252 247 232 251 264 271 267 265 279 180 182 175 175 175 171 171 171 169 167 167 167 169 170 172 173 174 176 179 184 185 189 190 189 195 193 191 192 194
235 242 213 196 218 214 203 220 238 253 266 275 280 288 67 321 199 183 178 175 172 173 171 169 168 167 168 168 169 171 173 174 177 181 186 187 186 185 187 194 195 195 202 197
217 241 244 223 208 284 246 239 233 246 251 254 273 283 96 183 191 186 173 167 169 171 169 169 167 167 170 171 171 173 175 177 179 181 183 187 187 185 188 194 199 200 207 211
184 227 233 214 199 202 227 232 243 250 260 258 262 268 133 156 180 180 173 165 165 170 170 169 169 172 174 174 174 173 177 178 179 179 182 184 187 185 190 194 194 195 200 209
245 243 257 268 290 236 230 230 235 245 250 256 256 272 248 213 197 181 176 172 169 171 172 174 173 175 174 174 174 175 177 177 178 178 180 180 183 182 183 182 178 180 185 188
251 248 254 272 283 272 265 259 249 248 260 270 276 277 280 284 241 198 185 179 174 172 175 176 174 172 174 173 173 175 175 174 175 176 175 170 168 167 166 162 161 163 164 163
243 272 269 263 264 266 266 262 259 257 259 263 270 273 286 299 262 209 195 186 181 177 176 173 170 168 170 171 171 168 168 164 165 166 161 151 150 152 150 149 144 138 132 125
234 254 265 267 271 274 260 257 259 261 260 262 265 273 282 269 253 229 204 193 186 178 173 169 166 163 161 160 159 156 150 146 148 143 137 135 136 132 130 129 126 123 118 112
254 257 262 270 269 256 268 309 287 279 277 274 274 276 280 287 294 255 221 193 178 172 164 158 153 148 145 141 136 131 130 129 126 123 123 124 125 119 115 112 110 109 107 103
242 241 255 259 256 262 264 269 292 284 279 289 289 287 275 192 176 190 174 166 161 154 146 140 136 132 129 129 129 125 121 116 112 111 113 115 114 112 111 109 107 105 105 102
191 226 247 247 260 264 276 52 341 288 266 349 328 306 269 217 229 170 123 119 117 117 119 119 118 117 116 118 119 116 111 107 105 104 103 101 102 106 107 107 107 105 104 103
207 218 239 251 255 262 343 357 286 257 317 10 337 320 286 259 300 105 114 111 113 112 111 112 110 108 110 114 113 108 105 103 104 105 104 102 102 104 105 105 106 110 108 104
251 244 236 244 248 255 56 309 284 312 327 318 313 309 306 84 107 117 118 117 114 111 112 110 105 101 102 107 109 105 103 106 107 106 104 103 105 105 105 105 105 108 115 119
245 268 276 261 278 337 324 299 300 300 295 296 295 289 163 133 128 122 118 114 111 110 107 106 104 98 95 97 102 103 106 110 109 106 103 103 101 100 106 112 118 123 126 122
227 251 263 268 269 293 306 309 308 305 299 299 285 196 143 134 126 119 114 111 109 107 106 105 101 98 95 94 94 97 103 105 105 105 105 105 105 102 93 89 92 87 78 82
286 257 260 267 285 298 311 325 320 318 319 352 99 120 126 124 119 115 111 107 106 105 102 101 100 100 98 96 96 99 103 105 106 107 108 108 102 96 88 70 46 53 50 35
260 268 279 295 328 315 319 326 332 12 83 110 113 110 108 113 115 112 108 106 108 107 105 106 105 105 103 100 96 95 98 102 108 110 110 109 110 111 113 108 91 59 68 70